EHI
0 0 0 0 0 0 0 0 0 0 0 0 0 0 0 0 0 0 0 0 0 0 0 0 0 0 0 0 0 0 0 0 0 0 0 0 0 0
0 0 0 0 0 0 0 0 0 0 0 0 0 0 0 0 0 0 0 0 0 0 0 0 0 0 0 0 0 0 0 0 0 0 0 0 0 0
0 0 0 0 0 0 0 0 0 0 0 0 0 0 0 0 0 0 0 0 0 0 0 0 0 0 0 0 0 0 0 0 0 0 0 0 0 0
0 0 0 0 0 0 0 0 0 0 0 0 0 0 0 0 0 0 0 0 0 0 0 0 0 0 0 0 0 0 0 0 0 0 0 0 0 0
0 0 0 0 0 0 0 0 0 0 0 0 0 0 0 0 0 0 0 0 0 0 0 0 0 0 0 0 0 0 0 0 0 0 0 0 0 0
0 0 0 0 0 0 0 0 0 0 0 0 0 0 0 0 0 0 0 0 0 0 0 0 0 0 0 0 0 0 0 0 0 0 0 0 0 0
0 0 0 0 0 0 0 0 0 0 0 0 0 0 0 0 0 0 0 0 0 0 0 0 0 0 0 0 0 0 0 0 0 0 0 0 0 0
0 0 0 0 0 0 0 0 0 0 0 0 0 0 0 0 0 0 0 0 0 0 0 0 0 0 0 0 0 0 0 0 0 0 0 0 0 0
0 0 0 0 0 0 0 0 0 0 0 0 0 0 0 0 0 0 0 0 0 0 0 0 0 0 0 0 0 0 0 0 0 0 0 0 0 0
0 0 0 0 0 0 0 0 0 0 0 0 0 0 0 0 0 0 0 0 0 0 0 0 0 0 0 0 0 0 0 0 0 0 0 0 0 0
0 0 0 0 0 0 0 0 0 0 0 0 0 0 0 0 0 0 0 0 0 0 0 0 0 0 0 0 0 0 0 0 0 0 0 0 0 0
0 0 0 0 0 0 0 0 0 0 0 0 0 0 0 0 0 0 0 0 0 0 0 0 0 0 0 0 0 0 0 0 0 0 0 0 0 0
0 0 0 0 0 0 0 0 0 0 0 0 0 0 0 0 0 0 0 0 0 0 0 0 0 0 0 0 0 0 0 0 0 0 0 0 0 0
0 0 0 0 0 0 0 0 0 0 0 0 0 0 0 0 0 0 0 0 0 0 0 0 0 0 0 0 0 0 0 0 0 0 0 0 0 0
0 0 0 0 0 0 0 0 0 0 0 0 0 0 0 0 0 0 0 0 0 0 0 0 0 0 0 0 0 0 0 0 0 0 0 0 0 0
0 0 0 0 0 0 0 0 0 0 0 0 0 0 0 0 0 0 0 0 0 0 0 0 0 0 0 0 0 0 0 0 0 0 0 0 0 0
0 0 0 0 0 0 0 0 0 0 0 0 0 0 0 0 0 0 0 0 0 0 0 0 0 0 0 0 0 0 0 0 0 0 0 0 0 0
0 0 0 0 0 0 0 0 0 0 0 0 0 0 0 0 0 0 0 0 0 0 0 0 0 0 0 0 0 0 0 0 0 0 0 0 0 0
0 0 0 0 0 0 0 0 0 0 0 0 0 0 0 0 0 0 0 0 0 0 0 0 0 0 0 0 0 0 0 0 0 0 0 0 0 0
0 0 0 0 0 0 0 0 0 0 0 0 0 0 0 0 0 0 0 0 0 0 0 0 0 0 0 0 0 0 0 0 0 0 0 0 0 0
0 0 0 0 0 0 0 0 0 0 0 0 0 0 0 0 0 0 0 0 0 0 0 0 0 0 0 0 0 0 0 0 0 0 0 0 0 0
0 0 0 0 0 0 0 0 0 0 0 0 0 0 0 0 0 0 0 0 0 0 0 0 0 0 0 0 0 0 0 0 0 0 0 0 0 0
0 0 0 0 0 0 0 0 0 0 0 0 0 0 0 0 0 0 0 0 0 0 0 0 0 0 0 0 0 0 0 0 0 0 0 0 0 0
Wind_Speed
7 8 7 6 6 6 6 6 7 8 8 8 5 6 6 6 7 7 8 9 11 11 12 11 11 11 11 11 11 11 11 11 10 10 10 10 10 10
7 8 8 6 6 6 7 7 7 9 9 7 7 7 8 7 9 9 9 12 12 12 12 11 11 11 12 12 12 12 12 11 12 11 11 11 10 10
8 9 9 9 7 7 7 7 8 8 10 9 8 8 10 9 9 9 9 9 8 11 11 11 12 12 12 12 12 12 12 12 12 12 12 12 11 11
10 10 10 8 9 8 8 9 8 9 9 11 9 8 10 10 10 10 8 7 8 10 11 12 12 12 12 12 12 12 12 12 12 12 12 12 12 12
10 10 10 10 10 8 9 9 8 8 9 9 10 8 8 8 9 9 10 8 8 8 10 11 11 12 12 11 11 11 11 11 11 11 11 11 10 10
10 10 10 10 11 10 9 10 9 9 9 9 9 8 8 8 8 8 7 7 6 6 8 8 9 11 12 12 12 11 11 11 11 10 9 9 9 10
10 10 10 11 13 12 10 9 9 9 8 9 9 8 8 7 8 7 7 6 7 6 6 6 6 6 8 10 11 11 11 11 11 10 10 9 10 10
11 11 11 12 13 16 17 16 15 12 11 10 10 10 11 10 9 7 7 7 7 5 6 6 6 7 7 7 9 10 11 11 11 11 11 10 10 10
11 11 9 9 12 11 13 15 16 17 17 13 13 12 11 10 10 10 9 9 8 6 6 7 6 7 6 7 10 11 12 12 12 12 11 11 11 11
11 11 11 11 10 11 11 12 12 13 14 12 12 12 12 11 11 10 10 10 9 7 7 8 7 7 6 6 8 11 12 12 12 12 12 11 11 11
11 11 11 11 13 15 12 12 12 11 13 16 17 16 17 17 14 8 8 8 8 7 6 6 6 6 6 6 7 10 11 11 12 12 12 11 10 10
9 10 12 13 14 14 11 11 12 11 10 11 12 13 13 13 14 11 9 8 7 6 5 5 5 5 5 5 5 5 6 10 12 12 12 11 10 7
8 8 8 13 15 15 14 11 12 12 10 10 9 9 9 8 9 9 9 8 8 7 5 5 5 5 5 5 5 5 5 5 6 7 10 11 11 9
9 8 9 13 15 15 12 12 15 13 8 7 7 8 7 7 7 7 8 9 9 9 8 7 6 6 6 6 6 4 5 5 5 5 5 8 9 11
9 12 14 14 14 11 13 14 12 8 7 7 7 7 7 7 6 6 6 7 8 7 7 8 7 7 6 6 6 5 5 5 5 5 5 5 5 6
8 10 12 12 10 10 10 8 7 7 7 7 7 6 6 5 5 5 5 4 4 5 5 6 7 8 7 7 6 6 5 4 4 4 4 4 4 5
8 6 6 6 5 5 6 5 5 5 6 6 6 6 6 5 5 5 4 4 5 5 4 3 3 4 5 5 5 5 5 4 4 4 4 4 4 4
8 6 6 5 5 5 6 5 5 5 6 6 6 5 6 5 5 4 4 5 5 5 5 4 3 2 3 3 5 6 4 4 3 3 3 4 4 4
6 5 6 6 5 5 6 6 6 6 6 6 5 5 5 5 5 5 4 5 5 5 5 4 4 4 5 5 3 4 4 3 3 3 3 3 3 3
5 5 6 6 6 6 6 6 6 6 6 6 5 5 5 5 5 5 5 5 5 5 5 4 5 5 6 5 3 3 4 4 3 3 2 1 1 2
5 6 6 6 6 6 6 6 7 6 6 6 6 6 5 5 5 5 5 7 6 5 6 5 4 4 2 2 2 3 2 2 2 3 3 2 2 2
6 6 6 6 6 7 7 6 7 6 6 6 6 6 5 5 5 6 5 5 5 5 5 4 2 2 3 4 4 3 2 1 0 0 1 3 3 3
6 6 6 6 6 6 6 7 8 7 6 6 6 6 6 5 5 5 5 5 5 5 4 3 3 2 2 3 3 2 3 2 1 0 1 1 1 2
Wind_Direction
277 274 267 265 266 263 258 256 264 272 273 274 272 269 277 273 276 271 271 272 274 277 280 281 280 280 278 277 278 277 274 268 267 263 257 247 238 239
277 275 267 263 263 263 258 254 257 263 268 267 274 277 278 280 275 270 269 274 269 268 271 274 275 273 272 270 269 270 269 265 259 261 259 251 239 238
275 273 269 266 263 260 260 256 257 259 265 271 269 270 268 271 275 268 265 263 260 262 266 269 270 270 270 267 266 266 266 263 261 257 257 254 245 238
274 273 270 266 263 261 258 256 257 259 263 271 272 269 266 265 270 266 265 261 261 260 261 265 266 266 266 264 264 264 262 261 258 256 254 251 249 240
277 273 273 267 264 263 260 258 258 260 261 265 269 268 266 262 268 265 261 259 262 259 258 258 258 261 262 262 262 261 260 258 257 254 250 248 246 240
276 275 274 270 267 266 263 261 261 260 259 261 265 265 264 262 262 260 258 255 260 263 258 258 258 259 259 259 258 258 258 256 252 250 247 244 242 243
278 275 273 272 272 267 264 263 262 260 260 261 262 265 263 260 258 259 258 259 262 262 257 255 256 255 253 252 251 250 250 249 247 245 245 244 244 244
281 280 277 272 270 269 266 265 264 261 260 263 263 260 263 263 262 259 258 257 263 254 258 262 258 256 254 248 244 248 251 248 244 243 241 241 244 244
280 279 277 275 275 271 268 267 265 264 260 261 263 262 265 268 266 260 256 259 263 257 258 263 258 257 255 248 245 245 247 250 245 242 240 239 241 242
278 279 278 277 273 273 269 267 264 262 260 257 260 265 265 264 262 259 263 268 269 257 247 258 260 260 260 252 243 243 246 247 248 242 238 236 236 239
280 279 277 276 277 277 272 267 268 266 265 264 266 268 269 267 265 259 251 251 258 259 251 255 261 267 264 259 249 243 245 245 247 243 236 232 231 234
282 279 274 274 278 277 274 270 268 269 270 270 267 267 267 265 258 248 244 244 253 260 246 245 254 262 267 260 253 249 246 245 242 242 238 231 230 233
284 282 278 278 279 281 280 275 274 278 274 270 267 266 266 261 252 244 241 239 243 254 245 243 253 256 259 270 270 261 251 247 240 236 234 231 231 230
284 285 285 284 284 284 282 278 282 282 272 266 264 265 265 263 258 252 253 252 248 251 247 239 248 245 249 259 267 263 256 248 242 238 232 226 228 228
284 288 292 294 290 283 279 282 282 274 268 265 265 267 268 266 267 260 258 258 258 257 247 242 241 240 241 248 257 259 265 259 243 234 230 228 226 222
288 290 291 290 287 287 287 281 273 272 272 269 270 275 274 267 262 257 255 253 259 266 255 243 240 235 240 246 245 249 248 243 238 234 229 231 229 226
299 293 292 290 286 284 283 283 282 283 281 277 273 273 272 264 266 264 260 257 253 253 257 258 253 249 250 247 242 242 242 247 242 227 221 228 234 230
303 291 290 291 290 290 292 291 288 286 286 285 279 274 274 269 269 270 260 257 257 252 250 244 234 242 255 261 245 240 236 238 243 238 229 222 235 236
295 289 289 290 289 289 290 289 287 288 286 283 282 279 278 275 272 269 265 265 262 258 253 240 230 224 232 245 248 236 232 229 226 234 241 238 239 241
291 290 289 291 290 288 288 288 288 287 284 283 283 281 278 276 271 266 263 268 271 268 263 249 235 228 230 238 242 263 249 231 219 224 239 255 276 271
294 291 290 291 291 290 287 287 287 285 286 286 284 283 277 274 273 272 270 270 271 265 257 254 252 239 231 208 221 245 262 256 232 221 209 209 226 233
296 294 292 291 290 290 288 285 284 284 285 282 282 282 277 271 272 274 272 271 271 269 268 269 259 233 218 213 216 221 236 217 130 89 285 235 217 212
296 294 291 290 288 289 288 287 286 284 283 282 281 279 277 274 271 272 274 270 269 267 262 259 255 240 218 202 202 203 203 212 209 138 336 317 219 221